sat.trackr.live / text

‹ back to catalog

STARLINK-5304

NORAD 54843 · 2022-177Z

PAYLOAD ACTIVE UNKNOWN

§ Identity

Operator
Country
US
Launch date
2022-12-28
Launch site
AFETR
Launch vehicle
Mass (kg)
RCS (m²)

Purposes: comms

External: N2YO · Heavens-Above · Gunter

§ Orbital elements

Epoch: 2026-05-24T22:54:06.717024Z

Period
94.27 min
Inclination
43.0068°
Eccentricity
0.0001143
Mean motion
15.27586425 rev/d
Perigee alt
482.2 km
Apogee alt
483.8 km
Semi-major
6,861.2 km
B*
5.4575e-6
RAAN
62.2358°
Arg perigee
267.8082°
Mean anomaly
92.2639°
Rev number
18,862

§ Raw data

STARLINK-53041 54843U 22177Z   26144.95424441 -.00000112  00000+0  54575-5 0  99982 54843  43.0068  62.2358 0001143 267.8082  92.2639 15.27586425188626

JSON: /api/v1/satellites/54843 · /tle

For live sub-satellite position, see the globe view (requires WebGL).

§ Visibility from observer

Set your observer location to see the next 7 days of passes ≥ 10°. The values pass through the URL so the page stays shareable.

No JS? Fill the form by hand. The geolocation button needs JavaScript.